Showing default

ICEYE-X4, 44390

Orbit data source: Space-Track

ICEYE-X4, 44390 is a payload satellite owned by ICEYE (FI) in SSO that was launched on Fri, 05 Jul 2019 UTC via a SOYUZ-2-1B launch vehicle from the Vostochny Cosmodrome (VOSTO). Payload-class satellites include a variety of spacecraft equipped with specific instruments for various scientific and technological missions. These include communications satellites like Starlink; space stations such as the ISS; scientific satellites like the Hubble; Earth observation satellites from companies like Planet Labs, Umbra, and HawkEye 360; GPS; miniature CubeSats for education and research; and military/defense satellites.

Loading next visibility...
Identifier
44390, 2019-038D
Orbit
SSO
Last TLE update
8 hours ago
Origin
Manufacturer
ICEYE
Mission
Operational Commercial Radar Imaging
Bus & Motor
ICEYE, Unknown motor
Mass
80 kg wet, 80 kg dry
Launch date (UTC)
2019-07-05 (6 years ago)
Launch vehicle
SOYUZ-2-1B
Launch site
Vostochny Cosmodrome (VOSTO)
Object type
Payload
Rocket body
Debris
Shape & HBR
Box + 1 Pan, 3.25 m
Radar Cross Section
1.837 m², Medium (>0.1 m² and < 1m²)

Expand to show TLE details & history

TLE from 8 hours ago
0 ICEYE-X4
1 44390U 19038D   25182.09392364  .00007607  00000-0  35213-3 0  9992
2 44390  97.9018 191.1928 0018106  87.2891 273.0414 15.20289226328302
Epoch: 2025-07-01T02:15Z
TLE epoch observation values (Epoch: 2025-07-01T02:15:15.002Z)
Latitude
-0.00013°
Longitude
-122.01401°
Altitude
507.405 km
Speed
7.611 km/s
True Right ascension
12h 44m 46s
True Declination
0° 00' 00"
Sunlit
Object was in daylight at epoch
Visualization orbit readout
Latitude
-19.73568°
Longitude
-118.83474°
Altitude
515.989 km
Speed
7.603 km/s
Apparent Right ascension
11h 34m 24s
Apparent Declination
-31° 33' 49"
Sunlit
Object is in daylight
Visualization observer readout
Local Sidereal Time
21:42:18
Azimuth
281.458° WNW
Elevation
-65.889°
Doppler factor
1
Orbital elements
Apogee altitude
514.412 km
Perigee altitude
489.498 km
Semi-major axis
6,880.092 km
Eccentricity
0.00181
Inclination
97.9018°
RAAN
191.1928°
Arg. of periapsis
87.2891°
True anomaly
Unknown
Mean anomaly
273.0414°
Eccentric anomaly
Unknown
Mean motion
3.80322 °/min
Orbital period
94.66 mins
BSTAR
0.00035213
Loading maneuver chart data...
Loading SW <> Apogee altitude chart data...

ICEYE-X4 Visibility forecast

Observer location: undefined°, undefined°

Span
Click to sort rows by Start time (UTC) header in descending order
Start Az.
Max El. time (UTC)
Max El. Az.
Max El.
End time (UTC)
End Az.
6 mins2025-07-01 13:51:55.310Z358.381° N2025-07-01 13:54:55.310Z294.314° NW35.616°2025-07-01 13:57:55.310Z216.019° SW
5 mins2025-07-02 00:30:55.310Z153.041° SSE2025-07-02 00:32:55.310Z62.644° ENE42.903°2025-07-02 00:35:55.310Z353.571° N
|